Powrót do katalogu

STARLINK-4205

AktywnyŁącznośćVLEO
NORAD 53174·PAYLOAD·🇺🇸 United States

Wystrzelony Jul 17, 2022 z Cape Canaveral Space Force Station

Loading…

Następne Przeloty (najbliższe 24 godziny)

TLE

ŚwieżeSource: CelesTrak SupGP

Epoka: Sep 15, 2026, 01:53 UTC

1 53174C 22083AU  26258.07895833 -.00019948  00000+0 -64155-3 0  2585
2 53174  53.1585  29.1783 0001135  93.3608 345.0960 15.31709180    11

Śledź STARLINK-4205 w czasie rzeczywistym z AllMySat

Download on the App Store